User: anonymous   Login
Location: Unspecified
(0.0000°N, 0.0000°E)
Time: 12:20:43
(UTC+00:00)
Language:

USA 252 - Orbit

View from above orbital plane
View from above orbital plane
View from above satellite
View from above satellite

Ground track
Ground track

The orbit data is extracted from the following two-line orbital elements,

1 39751U 14027A   17112.57908654 0.00000000  00000-0  00000-0 0    08
2 39751   2.9825 229.2771 0002002  60.5331 299.4414  1.00270000    08
Epoch (UTC): 22 April 2017 13:53:53
Eccentricity: 0.0002002
inclination: 2.9825°
perigee height: 35778 km
apogee height: 35795 km
right ascension of ascending node: 229.2771°
argument of perigee: 60.5331°
revolutions per day: 1.00270000
mean anomaly at epoch: 299.4414°
orbit number at epoch: 0

The dashed part of the orbit path shows where the satellite is in the earth's shadow,  

DLR